FW1504 Weather Reports


time (UTC)temp
F
wind
direction
speed
knots
gust
knots
rain 1hr
in
rain 24hr
in
rain mn
in
humidity
%
barometer
mb
20260906203034 102 191 0.0 6.1 0.00 0.00 0.00 34 1010.3
20260906201538 102 209 0.0 1.7 0.00 0.00 0.00 34 1010.5
20260906200030 102 181 0.9 4.3 0.00 0.00 0.00 34 1010.6
20260906194537 102 177 0.9 4.3 0.00 0.00 0.00 34 1010.9
20260906193025 102 184 0.0 3.5 0.00 0.00 0.00 36 1011.1
20260906191522 101 70 0.9 5.2 0.00 0.00 0.00 36 1011.4
20260906190018 100 82 0.0 3.5 0.00 0.00 0.00 40 1011.6
20260906184517 98 171 0.0 1.7 0.00 0.00 0.00 39 1011.7
20260906183025 100 126 0.0 10.4 0.00 0.00 0.00 37 1011.8
20260906181535 98 167 0.0 1.7 0.00 0.00 0.00 40 1012.1
20260906180011 98 182 0.9 6.1 0.00 0.00 0.00 40 1012.3
20260906174514 98 83 0.9 3.5 0.00 0.00 0.00 41 1012.6
20260906173008 97 67 0.0 3.5 0.00 0.00 0.00 42 1013.0
20260906171506 98 178 0.9 4.3 0.00 0.00 0.00 41 1013.3
20260906170014 97 194 0.0 2.6 0.00 0.00 0.00 42 1013.5
20260906164504 96 153 0.0 2.6 0.00 0.00 0.00 42 1013.5
20260906163002 96 188 0.0 3.5 0.00 0.00 0.00 44 1013.7
20260906161606 95 161 0.0 3.5 0.00 0.00 0.00 46 1013.7
20260906160055 94 217 0.0 2.6 0.00 0.00 0.00 47 1013.6
20260906154553 94 178 0.9 2.6 0.00 0.00 0.00 47 1013.6
20260906153049 92 187 0.0 1.7 0.00 0.00 0.00 50 1013.6
20260906151546 91 184 0.0 1.7 0.00 0.00 0.00 52 1013.4
20260906150042 90 181 0.0 2.6 0.00 0.00 0.00 53 1013.5
20260906144538 89 190 0.0 1.7 0.00 0.00 0.00 54 1013.4
20260906143034 88 167 0.0 0.9 0.00 0.00 0.00 55 1013.5
20260906141531 87 167 0.0 2.6 0.00 0.00 0.00 57 1013.4
20260906140026 85 171 0.0 2.6 0.00 0.00 0.00 59 1013.2
20260906134522 83 171 0.0 1.7 0.00 0.00 0.00 61 1013.1
20260906133017 81 360 0.0 1.7 0.00 0.00 0.00 64 1013.2
20260906131513 79 169 0.0 0.9 0.00 0.00 0.00 68 1013.1
20260906130008 77 169 0.0 0.0 0.00 0.00 0.00 71 1012.9
20260906124507 76 169 0.0 0.0 0.00 0.00 0.00 72 1012.8
20260906123101 76 169 0.0 0.9 0.00 0.00 0.00 72 1012.7
20260906121607 76 169 0.0 0.0 0.00 0.00 0.00 71 1012.5
20260906120054 77 169 0.0 0.0 0.00 0.00 0.00 71 1012.2
20260906114607 77 169 0.0 0.0 0.00 0.00 0.00 69 1012.1
20260906113103 78 169 0.0 0.9 0.00 0.00 0.00 67 1012.0
20260906111549 77 169 0.0 1.7 0.00 0.00 0.00 68 1011.9
20260906110049 77 169 0.0 0.0 0.00 0.00 0.00 68 1011.8
20260906104549 77 169 0.0 0.9 0.00 0.00 0.00 70 1011.8
20260906103048 77 170 0.0 0.0 0.00 0.00 0.00 70 1011.7
20260906101547 77 360 0.0 0.0 0.00 0.00 0.00 70 1011.6
20260906100044 77 360 0.0 0.0 0.00 0.00 0.00 68 1011.5
20260906094549 78 170 0.0 0.0 0.00 0.00 0.00 66 1011.6
20260906093041 78 360 0.0 0.0 0.00 0.00 0.00 64 1011.4
20260906091543 79 170 0.0 0.0 0.00 0.00 0.00 64 1011.5
20260906090037 79 171 0.0 0.0 0.00 0.00 0.00 62 1011.4
20260906084536 80 170 0.0 0.9 0.00 0.00 0.00 62 1011.2
20260906083035 80 170 0.0 0.9 0.00 0.00 0.00 62 1011.2
20260906081539 80 170 0.0 0.0 0.00 0.00 0.00 62 1011.2
20260906080034 81 360 0.0 0.0 0.00 0.00 0.00 60 1011.3
20260906074530 81 360 0.0 0.0 0.00 0.00 0.00 61 1011.2
20260906073028 81 360 0.0 0.0 0.00 0.00 0.00 60 1011.0
20260906071526 82 175 0.0 0.0 0.00 0.00 0.00 58 1011.0
20260906070023 82 169 0.0 0.0 0.00 0.00 0.00 56 1011.1
20260906064526 83 360 0.0 0.0 0.00 0.00 0.00 55 1011.0
20260906063018 84 170 0.0 0.0 0.00 0.00 0.00 54 1011.0
20260906061515 84 171 0.0 0.0 0.00 0.00 0.00 52 1011.0
20260906060013 85 170 0.0 0.0 0.00 0.00 0.00 51 1011.1
20260906054510 86 170 0.0 0.9 0.00 0.00 0.00 50 1010.8
20260906053008 86 169 0.0 1.7 0.00 0.00 0.00 49 1010.7
20260906051508 87 177 0.0 1.7 0.00 0.00 0.00 49 1010.8
20260906050010 87 160 0.0 2.6 0.00 0.00 0.00 48 1010.7
20260906044502 88 182 0.0 1.7 0.00 0.00 0.00 47 1010.7
20260906043003 89 173 0.0 1.7 0.00 0.00 0.00 46 1010.8
20260906041503 89 171 0.0 2.6 0.00 0.00 0.00 46 1010.8
20260906040100 90 163 0.0 2.6 0.00 0.00 0.00 45 1010.8
20260906034602 90 187 0.0 2.6 0.00 0.00 0.00 46 1010.8
20260906034501 90 188 0.0 2.6 0.00 0.00 0.00 45 1010.8
20260906033101 89 175 0.0 2.6 0.00 0.00 0.00 46 1010.8
20260906031624 89 156 0.0 1.7 0.00 0.00 0.00 46 1010.7
20260906030058 90 157 0.0 0.9 0.00 0.00 0.00 45 1010.7
20260906024603 91 151 0.0 0.0 0.00 0.00 0.00 44 1010.7
20260906023110 91 132 0.0 1.7 0.00 0.00 0.00 44 1010.7
20260906021557 91 132 0.0 1.7 0.00 0.00 0.00 44 1010.4
20260906020100 91 132 0.0 1.7 0.00 0.00 0.00 43 1010.3
20260906014556 92 132 0.0 0.9 0.00 0.00 0.00 42 1010.2
20260906013056 93 132 0.0 0.9 0.00 0.00 0.00 41 1009.9
20260906011603 94 360 0.0 0.0 0.00 0.00 0.00 41 1009.7
20260906010054 95 132 0.0 1.7 0.00 0.00 0.00 38 1009.7
20260906004559 96 131 0.0 1.7 0.00 0.00 0.00 38 1009.4
20260906003054 96 140 0.0 3.5 0.00 0.00 0.00 37 1009.4
20260906001552 97 128 0.0 3.5 0.00 0.00 0.00 36 1009.6
20260906000059 98 139 0.0 5.2 0.00 0.00 0.00 36 1009.3
20260905234554 99 94 0.0 5.2 0.00 0.00 0.00 36 1009.0
20260905233053 99 152 0.9 3.5 0.00 0.00 0.00 36 1008.9
20260905231551 99 127 0.0 3.5 0.00 0.00 0.00 36 1008.9
20260905230048 100 198 1.7 5.2 0.00 0.00 0.00 35 1008.9
20260905224548 100 190 0.9 6.1 0.00 0.00 0.00 34 1008.9
20260905223047 100 61 1.7 4.3 0.00 0.00 0.00 35 1008.8
20260905221600 101 178 0.9 7.0 0.00 0.00 0.00 34 1008.9
20260905220045 102 177 1.7 6.1 0.00 0.00 0.00 34 1009.0
20260905214542 102 122 0.0 2.6 0.00 0.00 0.00 34 1009.0
20260905213041 101 246 0.0 5.2 0.00 0.00 0.00 35 1009.3
20260905211539 101 163 2.6 6.1 0.00 0.00 0.00 34 1009.5
20260905210037 101 184 1.7 5.2 0.00 0.00 0.00 34 1009.7
20260905204538 101 128 0.9 4.3 0.00 0.00 0.00 36 1010.0